Reflectivity
-20 -20 6 10 -17 10 4 -20 10 -7 -20 -20 -20 -20 -20 -20 -20 -20 -20 -20 -20 -20 -20 -20 -20 -20 -20 -20 -20 -20 -20 -20 -20 -20 6 -20 -20 -20 -20 -20 -20 -20 -20 -20 -20
-20 -20 -20 -20 -8 -20 -17 -3 6 10 -20 -20 -20 -20 -20 -20 -20 -20 -20 -20 -20 -20 -20 -20 -20 -20 -20 -20 -20 -20 -20 -20 -20 -20 -20 -20 -20 -20 -20 -20 -20 -20 -20 -20 -20
-20 -20 -20 -20 6 -4 1 3 -5 4 -20 -20 -20 -20 -20 -20 -20 -20 -20 -20 -20 -20 -20 -20 -20 -20 -20 -20 -20 -20 19 -20 -4 -20 -20 -20 -20 -20 -20 -20 -20 -20 -20 -20 -20
-20 -20 -19 2 -17 -13 6 -20 7 8 7 -20 -20 -20 -20 -20 -20 -20 -20 -20 -20 -20 -20 -20 -20 -20 -20 -20 -20 -20 -20 -20 -4 -20 -20 -19 -6 -20 -20 -20 -20 -20 -20 -20 -20
-20 -20 -20 4 7 9 0 6 5 5 -2 -20 -20 -20 -20 -20 -20 -20 -20 -20 -20 -20 -20 -20 -20 -20 -20 -20 -20 -20 -20 -20 -20 -20 -20 -20 -20 -20 -20 -20 -20 -20 -20 -20 -20
-20 -20 -20 -5 1 8 8 2 4 -1 -14 -20 -20 -20 -20 -20 -20 -20 -20 -20 -20 -20 -20 -20 -20 -20 -20 -20 -20 -20 -20 -20 -20 -8 17 -20 -17 -20 -20 -20 -20 -20 -20 -20 -20
-20 -20 6 5 0 -6 2 -11 -2 -2 -20 -20 -20 -20 -20 -20 -20 -20 -20 -20 -20 -20 -20 -20 -20 -20 -20 -20 -20 -20 -20 -20 -20 -20 -20 -20 -20 -20 -20 -20 -20 -20 -20 -20 -20
-20 -20 3 5 -3 -6 -8 -20 -0 -4 -20 -20 -20 -20 -20 -20 -20 -20 -20 -20 -20 -20 -20 -20 -20 -20 -20 -20 -20 -20 -20 -20 -20 -20 -20 -20 15 -20 -20 -20 -20 -20 -20 -20 -20
-20 -20 -20 9 3 -12 -20 -20 -17 -20 -20 -20 -20 -20 -20 -20 -20 -20 -20 -20 -20 -20 -20 -20 -20 -20 -20 -20 -20 -20 -20 -20 -20 -20 -20 -20 -8 11 -20 -20 -20 -20 -20 -20 -20
-20 -20 -20 -20 -14 -20 -20 -20 -20 -20 -20 -20 -20 -20 -20 -20 -20 -20 -20 -20 -20 -20 -20 -20 -20 -20 -20 -20 -20 -20 -20 -20 -20 -20 -20 -20 -1 5 21 -20 -20 -20 -20 -20 -20
-20 -2 -15 -20 -20 -20 -20 -20 -20 -20 -20 -20 -20 -20 -20 -20 -20 -20 -20 -20 -20 -20 -20 -20 -20 -20 -20 -20 -20 -20 -20 -20 -20 -20 -20 -20 -20 -17 10 -20 -4 -20 -20 -20 -20
-2 7 8 -15 -20 -20 -20 -20 -20 -20 -20 -20 -20 -20 -20 -20 -20 -20 -20 -20 -20 -20 -20 -20 -20 -20 -20 -20 -20 -20 -20 -20 -20 -20 -20 -20 -20 -20 -14 -20 -20 -20 -20 -20 -20
9 9 9 1 -20 -20 -20 -20 -20 -20 -20 -20 -20 -20 -20 -20 -20 -20 -20 -20 -20 -20 -20 -20 -20 -20 -20 -20 -20 -20 -20 -20 -20 -20 -20 -20 -20 -20 -16 -20 -11 -20 -20 -20 -20
12 -0 6 -11 1 -20 -20 -20 -20 -20 -20 -20 -20 -20 -20 -20 -20 -20 -20 -20 -20 -20 -20 -20 -20 -20 -20 -20 -20 -20 -20 -20 -20 -20 -20 -20 -14 -20 -20 -20 -20 -20 -20 -20 -20
11 9 1 -20 -20 -20 -20 -20 -20 -20 -20 -20 -20 -20 -20 -20 -20 -20 -20 -20 -20 -20 -20 -20 -20 -20 -20 -20 -20 -20 -20 -20 -20 -20 -20 -20 -20 -20 -20 -20 -20 -20 -19 -20 -20
0 -14 -17 -20 -20 -20 -20 -20 -20 -20 -20 -20 -20 -20 -20 -20 -20 -20 -20 -20 -20 -20 -20 -20 -20 -20 -20 -20 -20 -20 -20 -20 -20 -20 -20 -20 -20 8 -20 -20 -20 -20 -20 -20 -20
-20 -20 -13 -20 -20 -20 -20 -20 -20 -20 -20 -20 -20 -20 -20 -20 -20 -20 -20 -20 -20 -20 -20 -20 -20 -20 -20 -20 -20 -20 -20 -20 -20 -20 -20 -20 -20 -18 -20 -20 -20 -20 -20 -20 -20
-20 -20 -20 -20 -20 -20 -20 -20 -20 -20 -20 -20 -20 -20 -20 -20 -20 -20 -20 -20 -20 -20 -20 -20 -20 -20 -20 -20 -20 -20 -20 -20 -20 -20 -20 -20 -20 3 -20 -20 -20 -20 -20 -20 -20
-6 -20 -20 -20 -20 -20 -20 -20 -20 -20 -20 -20 -20 -20 -20 -20 -20 -20 -20 -20 -20 -20 -20 -20 -20 -20 -20 -20 -20 -20 -20 -20 -20 -20 -20 -20 -20 -20 -20 -20 -20 -20 -20 -20 -20
-20 -20 -20 -20 -20 -20 -20 -20 -20 -20 -20 -20 -20 -20 -20 -20 -20 -20 -20 -20 -20 -20 -20 -20 -20 -20 -20 -20 -20 -20 -20 -20 -20 -20 -20 -20 -20 -20 -20 -20 -20 -20 -20 -20 -20
-20 -20 -20 -20 -20 -20 -20 -20 -20 -20 -20 -20 -20 -20 -20 -20 -20 -20 -20 -20 -20 -20 -20 -20 -20 -20 -20 -20 -20 -20 -20 -20 -20 -20 -20 -20 -20 -20 -20 -20 -20 -20 -20 -20 -20
-20 -20 -20 -20 -20 -20 -20 -20 -20 -20 -20 -20 -20 -20 -20 -20 -20 -20 -20 -20 -20 -20 -20 -20 -20 -20 -20 -20 -20 -20 -20 -20 -20 -20 -20 -20 -20 -20 -20 -20 -20 -20 -20 -20 -20
-20 -20 -20 -20 -20 -20 -20 -20 -20 -20 -20 -20 -20 -20 -20 -20 -20 -20 -20 -20 -20 -20 -20 -20 -20 -20 -20 -20 -20 -20 -20 -20 -20 -20 -20 -20 -20 -18 -20 -20 -20 -20 -20 -20 -20
-20 -20 -20 -20 -20 -20 -20 -20 -20 -20 -20 -20 -20 -20 -20 -20 -20 -20 -20 -20 -20 -20 -20 -20 -20 -20 -20 -20 17 -10 -20 -20 -20 -20 -20 -20 -20 -20 -20 -20 -20 -20 -20 -20 -20
-20 -20 -20 -20 -20 -20 -20 -20 -20 -20 -20 -20 -20 -20 -20 -20 -20 -20 -20 -20 -20 -20 -20 -20 -20 -20 -20 -20 -20 -20 -20 -20 -20 -20 -20 -20 -11 -20 -20 -20 -20 -20 -20 -20 -20
-20 -20 -20 -20 -20 -20 -20 -20 -20 -20 -20 -20 -20 -20 -20 -20 -20 -20 -20 -20 -20 -20 -20 -20 -20 -20 -20 -20 -20 -20 -20 -20 -20 -20 -20 -20 -20 -20 -20 -20 -20 -20 -20 -20 -20
-20 -20 -20 -20 -20 -20 -20 -20 -20 -20 -20 -20 -20 -20 -20 -20 -20 -20 -20 -20 -20 -20 -20 -20 -20 -20 -20 -20 -20 -20 -20 -20 -20 -20 -20 -20 -20 -20 5 -20 -20 -20 -20 -20 -20
Wind_Speed
10 9 9 9 8 8 7 7 7 8 8 8 8 8 9 10 13 7 10 1 4 14 9 10 8 7 7 1 2 4 5 3 2 3 7 1 4 3 1 7 2 3 1 13 16
11 10 9 9 9 8 8 8 7 8 8 7 7 8 8 8 9 13 4 6 13 15 14 13 9 7 2 0 1 5 4 3 2 2 1 4 3 4 6 6 5 8 8 16 16
11 11 10 10 10 9 9 8 8 8 7 6 7 7 7 10 8 3 12 11 16 14 10 7 6 5 3 3 3 2 5 5 3 3 4 2 1 3 6 4 4 10 15 16 15
12 11 10 10 10 10 9 8 8 7 7 7 7 6 6 8 3 7 11 13 15 12 10 8 7 4 4 5 3 5 3 6 5 4 3 8 1 3 6 6 6 13 15 14 14
12 12 11 11 10 9 9 8 7 7 6 5 6 6 7 9 1 9 11 13 15 10 12 8 7 3 5 3 3 5 3 3 4 2 2 7 3 1 4 4 11 14 14 13 12
14 13 12 11 10 10 9 8 8 6 5 5 6 6 7 10 4 2 13 18 13 11 8 7 3 3 2 3 4 3 2 3 4 2 1 4 2 5 9 8 12 13 13 12 11
15 14 14 12 11 10 10 9 8 6 5 6 6 6 8 3 2 5 15 13 10 12 8 7 2 6 1 2 0 1 5 2 6 1 1 5 4 4 5 10 11 12 11 11 10
16 15 14 13 11 11 10 10 8 5 6 6 6 7 5 3 4 10 11 10 9 6 4 4 3 2 6 3 3 5 5 5 3 6 5 4 2 2 5 9 11 12 11 10 10
15 16 14 12 11 10 9 11 2 5 6 6 7 7 4 5 8 11 11 12 11 8 3 5 7 4 4 7 7 5 8 7 3 5 1 4 3 4 6 9 11 12 12 11 11
16 15 14 11 10 8 9 5 7 11 6 6 5 7 6 8 10 11 7 9 11 11 9 10 8 10 8 8 9 11 12 9 5 7 8 9 7 4 7 9 11 12 12 12 12
17 15 12 10 7 6 5 6 7 7 8 5 3 3 8 10 13 11 11 11 11 13 13 11 10 11 4 6 9 11 11 11 5 3 6 11 10 12 13 12 15 13 13 13 13
17 14 11 9 6 3 7 7 5 7 5 11 6 6 3 3 10 12 11 10 11 13 11 8 14 5 3 5 8 11 10 7 1 1 8 6 13 12 15 14 16 17 15 15 14
17 14 9 5 4 5 9 9 1 3 7 8 7 8 7 9 9 17 18 14 11 13 14 16 6 5 6 9 9 7 9 10 6 1 9 9 12 10 15 15 15 17 18 17 15
19 12 6 4 7 7 7 9 8 5 7 9 8 8 8 7 9 10 17 12 8 14 13 12 13 12 12 11 7 6 9 6 4 7 5 3 4 4 8 14 17 18 18 17 16
19 12 5 19 3 6 6 6 6 6 7 6 7 6 7 13 10 10 15 12 14 12 8 13 7 11 13 8 4 7 8 3 4 6 9 10 7 9 7 10 17 21 22 21 19
21 11 10 6 5 3 2 5 7 8 3 7 7 11 12 14 6 9 12 13 7 12 12 17 6 9 9 1 6 4 5 3 5 6 9 7 8 1 4 1 2 16 21 20 20
21 4 11 2 4 2 3 6 8 7 3 8 7 10 15 11 11 9 13 16 11 11 14 16 19 18 15 14 7 9 12 9 5 7 4 5 8 6 6 5 5 5 15 20 19
14 10 6 4 1 4 7 8 6 3 1 4 1 6 11 9 11 11 11 13 15 11 5 8 14 20 15 18 16 13 13 10 7 9 4 5 5 5 6 2 5 6 9 14 18
5 5 4 3 3 5 7 8 4 0 2 2 5 9 12 9 6 12 13 13 12 16 10 4 6 6 6 9 18 13 9 15 13 9 9 7 4 10 2 1 6 5 6 9 15
4 5 5 2 2 6 7 2 1 3 5 3 6 2 7 13 13 9 12 5 14 15 18 11 10 10 2 5 6 16 7 8 12 10 12 6 5 8 5 4 7 7 8 8 10
5 4 5 0 4 6 7 1 1 2 3 4 2 5 4 5 12 14 7 7 6 1 12 16 13 12 8 11 10 9 12 13 14 9 12 13 4 6 2 5 9 8 8 11 12
4 3 4 3 6 2 5 1 0 2 0 2 6 6 7 2 8 12 11 12 2 4 6 15 9 13 15 14 8 11 14 14 11 10 8 9 11 6 1 3 8 10 10 12 12
2 3 3 4 4 5 4 4 1 3 1 3 3 2 1 4 5 5 4 3 3 5 4 7 10 12 15 16 9 11 15 17 17 16 13 12 10 8 5 6 8 10 12 11 12
3 3 4 3 2 5 2 2 4 2 1 4 5 5 6 9 6 5 6 2 4 3 3 4 14 13 15 14 8 7 9 11 17 15 15 15 14 8 9 9 9 12 12 13 12
5 5 4 2 4 2 3 2 3 2 1 2 4 3 5 7 9 12 8 9 7 5 6 8 16 17 18 19 21 22 19 19 13 16 21 18 14 11 10 8 9 12 14 14 14
5 5 1 3 1 4 3 2 5 3 4 4 8 6 7 10 9 12 7 8 9 4 9 9 14 14 17 19 23 24 23 21 21 18 18 21 21 14 6 4 8 10 13 15 14
4 2 6 1 1 4 4 3 3 5 1 6 4 10 10 7 9 13 13 14 15 16 13 13 11 13 18 19 21 22 17 19 23 21 18 18 18 17 8 12 11 10 13 14 16
Wind_Direction
357 355 350 344 338 328 319 313 306 301 302 307 310 311 315 318 293 221 240 156 154 160 184 151 186 179 217 233 334 285 258 170 66 284 114 176 175 110 309 136 82 57 56 116 142
352 349 350 343 336 332 323 317 307 302 301 308 308 309 313 317 268 254 157 130 144 163 174 180 173 185 208 258 220 312 289 24 15 323 88 124 240 190 190 151 118 109 115 131 149
351 350 342 338 336 330 330 319 313 305 306 303 298 303 303 294 263 187 122 152 161 185 181 197 170 225 299 320 14 323 337 322 117 305 289 340 55 265 240 172 113 139 144 152 154
350 344 338 332 330 329 326 325 316 311 304 295 292 291 292 244 243 57 135 149 157 189 174 181 192 237 323 341 3 296 0 329 12 324 232 240 290 243 239 40 99 135 149 155 160
346 340 335 330 325 321 322 318 316 307 300 284 285 285 254 217 256 109 134 151 169 178 190 194 207 310 336 352 298 319 6 330 15 310 141 248 215 61 179 98 115 134 153 157 159
343 338 337 329 321 318 317 312 311 299 285 267 266 275 244 233 74 103 172 167 177 194 195 217 322 327 2 0 312 5 2 328 103 343 70 285 230 236 132 139 133 150 159 160 159
339 336 333 327 321 318 315 310 305 285 256 251 254 256 246 30 7 134 167 177 175 198 200 212 267 253 8 198 160 235 295 205 139 189 14 316 208 129 144 170 152 167 164 155 161
335 334 330 328 324 319 315 308 292 250 228 236 240 244 263 87 122 156 158 158 184 189 282 187 224 294 297 125 203 280 224 4 123 192 138 252 204 161 175 191 179 176 168 170 165
330 328 328 326 321 319 313 307 218 185 200 209 225 251 168 141 188 154 180 166 167 186 158 165 227 278 202 261 239 180 341 15 150 215 206 227 273 195 223 203 189 188 175 178 174
328 324 322 320 317 315 312 294 149 160 192 216 263 237 185 180 143 157 165 170 172 168 164 203 221 244 228 268 360 330 332 337 334 157 223 219 216 190 199 195 206 191 192 184 185
325 321 316 310 305 300 248 179 195 178 213 267 155 319 126 111 146 175 158 169 176 191 209 206 242 234 345 319 305 301 310 319 326 138 224 235 246 216 230 213 207 206 202 198 196
322 319 314 299 287 240 260 239 353 359 192 217 239 258 205 214 159 161 185 198 191 209 209 200 236 256 310 300 294 302 305 333 106 257 221 265 256 238 224 227 214 211 207 208 196
323 318 311 298 167 208 228 224 338 290 256 154 195 230 194 203 203 172 191 208 210 218 212 246 128 61 252 279 285 309 345 345 318 151 231 285 254 227 223 213 217 217 217 212 204
329 322 299 135 191 159 214 217 238 265 254 132 188 187 181 219 209 153 204 199 207 231 227 252 251 260 260 273 296 300 349 315 284 267 6 251 347 148 185 205 214 218 213 218 201
331 324 233 215 66 206 77 156 201 229 229 134 138 107 157 206 116 175 190 209 230 212 233 230 224 231 242 267 317 4 315 325 284 272 288 156 257 111 172 204 207 213 212 209 207
337 327 160 161 226 308 192 158 192 228 126 135 134 179 178 203 179 139 186 227 251 240 231 262 242 261 268 165 281 311 247 221 211 255 241 62 302 181 98 178 208 197 214 212 206
340 158 195 200 73 135 236 201 209 262 150 147 169 182 206 181 196 189 188 200 209 208 224 227 235 235 239 249 212 228 254 260 235 203 345 61 285 338 351 220 234 221 201 205 207
343 153 192 297 216 236 206 222 243 48 123 125 208 189 212 197 214 196 198 212 212 238 276 222 211 212 217 227 249 201 272 292 302 292 354 143 253 47 349 279 242 257 242 193 198
334 191 186 68 215 242 240 226 27 25 18 291 174 216 201 212 259 205 221 225 210 212 243 209 225 125 210 260 238 230 239 264 290 240 257 271 278 251 99 41 151 164 186 204 196
228 182 83 65 192 236 245 351 131 359 330 255 263 248 235 200 200 205 203 221 233 225 228 261 272 241 99 178 214 259 310 232 219 266 269 247 260 271 335 150 163 164 174 176 188
229 197 78 177 231 223 239 100 192 87 323 292 282 264 267 261 229 214 234 211 231 181 228 239 241 268 201 216 224 176 225 231 278 296 299 282 248 75 331 198 189 160 160 165 172
283 191 51 213 217 262 234 339 289 221 304 261 277 280 275 299 256 244 244 255 1 221 203 220 255 253 251 246 243 277 253 240 231 231 230 296 293 119 265 227 202 171 166 161 168
4 61 90 260 250 192 143 165 303 271 29 321 276 290 322 280 270 248 239 108 330 242 256 188 228 257 250 216 208 246 236 242 246 261 268 276 268 135 193 201 208 195 174 168 173
281 186 112 83 8 314 253 154 218 97 248 329 309 266 272 247 217 281 256 163 324 279 359 255 255 254 272 283 310 221 238 230 260 249 247 241 256 263 208 223 195 202 187 182 183
348 62 8 74 84 24 286 325 264 252 322 292 211 334 318 277 259 248 275 280 212 140 232 263 256 268 266 270 279 281 271 278 247 256 266 271 260 227 273 238 210 195 193 192 186
16 335 125 63 336 268 151 79 304 332 293 231 279 330 291 277 296 314 326 282 280 327 307 259 272 273 275 273 271 269 265 266 259 257 267 267 275 290 262 220 229 195 196 194 191
24 83 289 145 17 260 50 31 16 338 211 284 305 311 285 335 333 298 289 284 276 284 287 285 277 261 261 273 274 255 258 261 262 256 246 252 261 272 221 219 227 205 200 204 193